FW2156 Weather Reports


Display with metric or nautical units.
time (UTC)temp
F
wind
direction
speed
MPH
gust
MPH
rain 1hr
in
rain 24hr
in
rain mn
in
humidity
%
barometer
mb
20260505050437 46 310 3.0 5.0 0.00 0.00 0.01 44 1014.9
20260505041417 47 113 2.0 3.0 0.00 0.00 0.01 43 1014.2
20260505040916 47 19 1.0 2.0 0.00 0.00 0.01 43 1014.2
20260505040417 48 136 0.0 0.0 0.00 0.00 0.01 43 1014.2
20260505035918 48 148 2.0 3.0 0.00 0.00 0.01 43 1013.9
20260505035418 48 203 0.0 1.0 0.00 0.00 0.01 43 1014.2
20260505034916 48 148 1.0 1.0 0.00 0.00 0.01 43 1014.6
20260505034418 48 41 2.0 2.0 0.00 0.00 0.01 43 1014.6
20260505033916 48 6 3.0 3.0 0.00 0.00 0.01 43 1014.2
20260505033417 48 76 2.0 2.0 0.00 0.00 0.01 43 1014.2
20260505032915 48 27 6.0 9.0 0.00 0.00 0.01 42 1013.9
20260505032418 48 51 2.0 3.0 0.00 0.00 0.01 42 1014.2
20260505031916 48 313 1.0 2.0 0.00 0.00 0.01 42 1014.2
20260505031416 49 79 1.0 1.0 0.00 0.00 0.01 42 1013.9
20260505030915 49 162 1.0 2.0 0.00 0.00 0.01 42 1014.2
20260505030415 49 57 3.0 6.0 0.00 0.00 0.01 42 1013.9
20260505025916 49 98 1.0 1.0 0.00 0.00 0.01 42 1013.9
20260505025415 49 172 1.0 1.0 0.00 0.00 0.01 42 1013.9
20260505024915 49 51 3.0 3.0 0.00 0.00 0.01 41 1013.5
20260505024340 49 106 5.0 7.0 0.00 0.00 0.01 41 1013.9
20260505023841 50 108 3.0 6.0 0.00 0.00 0.01 41 1013.5
20260505023335 50 153 3.0 5.0 0.00 0.00 0.01 41 1013.5
20260505022835 50 104 4.0 7.0 0.00 0.00 0.01 40 1013.5
20260505022341 50 24 3.0 5.0 0.00 0.00 0.01 40 1013.5
20260505021836 50 350 3.0 7.0 0.00 0.00 0.01 40 1013.5
20260505021340 50 119 1.0 6.0 0.00 0.00 0.01 40 1013.5
20260505020843 50 44 5.0 7.0 0.00 0.00 0.01 39 1013.5
20260505020339 51 290 3.0 5.0 0.00 0.00 0.01 39 1013.5
20260505015838 51 332 2.0 2.0 0.00 0.00 0.01 39 1013.5
20260505015338 51 81 1.0 1.0 0.00 0.00 0.01 39 1013.5
20260505014816 51 211 1.0 2.0 0.00 0.00 0.01 39 1013.2
20260505014314 51 100 2.0 3.0 0.00 0.00 0.01 38 1013.2
20260505013813 52 334 3.0 3.0 0.00 0.00 0.01 38 1013.2
20260505013314 52 257 1.0 1.0 0.00 0.00 0.01 37 1013.2
20260505012740 52 24 1.0 3.0 0.00 0.00 0.01 37 1013.2
20260505012238 52 31 3.0 7.0 0.00 0.00 0.01 37 1012.9
20260505011739 53 329 5.0 8.0 0.00 0.00 0.01 36 1013.2
20260505011214 53 6 3.0 5.0 0.00 0.00 0.01 36 1012.9
20260505010737 53 101 2.0 5.0 0.00 0.00 0.01 36 1012.9
20260505010241 53 106 5.0 7.0 0.00 0.00 0.01 36 1012.9
20260505005743 53 325 1.0 3.0 0.00 0.00 0.01 36 1012.9
20260505005240 53 51 2.0 3.0 0.00 0.00 0.01 35 1012.9
20260505004736 53 167 3.0 7.0 0.00 0.00 0.01 35 1012.9
20260505004241 53 314 3.0 3.0 0.00 0.00 0.01 35 1013.2
20260505003740 53 321 3.0 5.0 0.00 0.00 0.01 35 1012.9
20260505003238 54 42 2.0 3.0 0.00 0.00 0.01 35 1013.2
20260505002738 54 71 3.0 6.0 0.00 0.00 0.01 35 1013.2
20260505002242 54 302 2.0 3.0 0.00 0.00 0.01 34 1012.9
20260505001739 54 40 2.0 5.0 0.00 0.00 0.01 34 1012.9
20260505001215 54 95 3.0 6.0 0.00 0.00 0.01 34 1013.2
20260505000715 55 66 2.0 3.0 0.00 0.00 0.01 34 1013.2
20260505000214 55 74 3.0 5.0 0.00 0.00 0.01 34 1013.2
20260504235714 55 148 2.0 5.0 0.00 0.00 0.01 34 1012.9
20260504235144 55 315 3.0 6.0 0.00 0.00 0.01 35 1012.9
20260504234643 55 36 3.0 5.0 0.00 0.00 0.01 34 1012.9
20260504234137 55 311 2.0 2.0 0.00 0.00 0.01 35 1013.2
20260504233615 55 112 3.0 7.0 0.00 0.00 0.01 34 1012.9
20260504233041 55 236 3.0 5.0 0.00 0.00 0.01 35 1012.9
20260504232538 55 57 2.0 5.0 0.00 0.00 0.01 34 1012.9
20260504232038 55 53 3.0 7.0 0.00 0.00 0.01 33 1013.2
20260504231539 55 193 2.0 2.0 0.00 0.00 0.01 34 1013.2
20260504231044 55 50 3.0 5.0 0.00 0.00 0.01 34 1012.9
20260504230540 55 18 5.0 7.0 0.00 0.00 0.01 34 1012.9
20260504230015 55 265 5.0 6.0 0.00 0.00 0.01 33 1012.9
20260504225512 55 52 3.0 3.0 0.00 0.00 0.01 34 1012.9
20260504225014 55 277 3.0 3.0 0.00 0.00 0.01 34 1012.9
20260504224513 55 144 5.0 7.0 0.00 0.00 0.01 34 1012.9
20260504224012 56 303 1.0 1.0 0.00 0.00 0.01 34 1012.9
20260504223512 56 327 2.0 3.0 0.00 0.00 0.01 34 1012.9
20260504223014 56 207 2.0 2.0 0.00 0.00 0.01 33 1012.9
20260504222514 57 315 1.0 2.0 0.00 0.00 0.01 34 1013.2
20260504222011 57 15 6.0 7.0 0.00 0.00 0.01 33 1012.9
20260504221513 57 313 9.0 11.0 0.00 0.00 0.01 33 1012.9
20260504221012 56 341 4.0 5.0 0.00 0.00 0.01 32 1012.9
20260504220510 56 147 5.0 8.0 0.00 0.00 0.01 33 1012.9
20260504220013 56 239 4.0 6.0 0.00 0.00 0.01 32 1013.2
20260504215439 56 289 4.0 6.0 0.00 0.00 0.01 32 1013.2
20260504214939 56 289 3.0 5.0 0.00 0.00 0.01 33 1013.2
20260504214415 56 340 5.0 7.0 0.00 0.00 0.01 34 1013.2
20260504213913 56 338 8.0 10.0 0.00 0.00 0.01 32 1013.2
20260504213412 55 348 7.0 14.0 0.00 0.00 0.01 33 1013.2
20260504212916 55 328 3.0 3.0 0.00 0.00 0.01 33 1013.2
20260504212415 55 262 6.0 10.0 0.00 0.00 0.01 33 1013.2
20260504211913 55 276 6.0 9.0 0.00 0.00 0.01 33 1013.5
20260504211413 55 305 6.0 8.0 0.00 0.00 0.01 32 1013.2
20260504210911 55 45 3.0 5.0 0.00 0.00 0.01 33 1013.2
20260504210341 55 225 5.0 9.0 0.00 0.00 0.01 34 1013.2
20260504205837 55 258 2.0 2.0 0.00 0.00 0.01 34 1013.5
20260504205342 55 83 4.0 6.0 0.00 0.00 0.01 34 1013.5
20260504204842 55 345 5.0 8.0 0.00 0.00 0.01 34 1013.5
20260504204341 55 270 5.0 9.0 0.00 0.00 0.01 34 1013.5
20260504203839 55 301 4.0 7.0 0.00 0.00 0.01 34 1013.5
20260504203340 55 348 2.0 2.0 0.00 0.00 0.01 34 1013.2
20260504202838 56 216 3.0 5.0 0.00 0.00 0.01 34 1013.5
20260504202337 56 254 4.0 7.0 0.00 0.00 0.01 33 1013.5
20260504201842 55 39 3.0 6.0 0.00 0.00 0.01 32 1013.5
20260504201336 55 316 5.0 7.0 0.00 0.00 0.01 32 1013.5
20260504200842 55 292 7.0 9.0 0.00 0.00 0.01 34 1013.5
20260504200342 55 214 3.0 5.0 0.00 0.00 0.01 34 1013.2
20260504195836 55 200 6.0 8.0 0.00 0.00 0.01 35 1013.5
20260504195337 55 148 0.0 1.0 0.00 0.00 0.01 35 1013.5
20260504194842 54 10 5.0 7.0 0.00 0.00 0.01 35 1013.5
20260504194339 54 312 6.0 10.0 0.00 0.00 0.01 36 1013.5
20260504193840 54 304 2.0 3.0 0.00 0.00 0.01 36 1013.5
20260504193341 54 74 4.0 6.0 0.00 0.00 0.01 36 1013.5
20260504192837 54 349 5.0 6.0 0.00 0.00 0.01 38 1013.5
20260504192339 54 6 4.0 6.0 0.00 0.00 0.01 35 1013.5
20260504191841 53 278 4.0 6.0 0.00 0.00 0.01 37 1013.5
20260504191340 53 317 10.0 13.0 0.00 0.00 0.01 36 1013.9
20260504190841 53 276 3.0 5.0 0.00 0.00 0.01 37 1013.5
20260504190337 53 120 3.0 6.0 0.00 0.00 0.01 36 1013.5
20260504185837 53 16 4.0 6.0 0.00 0.00 0.01 37 1013.5
20260504185340 52 294 5.0 8.0 0.00 0.00 0.01 37 1013.5
20260504184838 52 153 3.0 5.0 0.00 0.00 0.01 39 1013.5
20260504184338 52 273 8.0 10.0 0.00 0.00 0.01 38 1013.9
20260504183835 52 305 7.0 9.0 0.00 0.00 0.01 37 1013.5
20260504183339 52 86 6.0 8.0 0.00 0.00 0.01 40 1013.9
20260504182812 51 333 2.0 5.0 0.00 0.00 0.01 38 1013.5
20260504182315 51 28 1.0 2.0 0.00 0.00 0.01 38 1013.9
20260504181811 51 259 7.0 10.0 0.00 0.00 0.01 42 1013.9
20260504181313 51 269 10.0 14.0 0.00 0.00 0.01 42 1013.9
20260504180744 51 324 2.0 7.0 0.00 0.00 0.01 41 1014.2
20260504180235 50 255 4.0 7.0 0.00 0.00 0.01 44 1013.9
20260504175739 50 270 5.0 6.0 0.00 0.00 0.01 43 1013.9
20260504175237 50 348 6.0 8.0 0.00 0.00 0.01 42 1013.9
20260504174738 49 327 5.0 7.0 0.00 0.00 0.01 44 1014.2
20260504174238 49 251 7.0 11.0 0.00 0.00 0.01 45 1013.9
20260504173737 49 0 5.0 7.0 0.00 0.00 0.01 46 1013.9
20260504173238 49 248 4.0 8.0 0.00 0.00 0.01 46 1013.9
20260504172740 49 113 4.0 6.0 0.00 0.00 0.01 48 1014.2
20260504172227 49 296 5.0 9.0 0.00 0.00 0.01 49 1014.2
20260504171726 49 68 2.0 5.0 0.00 0.00 0.01 49 1014.2
20260504171227 49 0 5.0 7.0 0.00 0.00 0.01 48 1014.2
20260504170727 49 70 1.0 2.0 0.00 0.00 0.01 49 1014.2
20260504170227 49 109 5.0 6.0 0.00 0.00 0.01 49 1014.2
20260504160226 44 240 1.0 2.0 0.00 0.00 0.01 56 1014.2
20260504150728 42 265 0.0 1.0 0.00 0.00 0.01 61 1014.2
20260504150226 42 251 5.0 7.0 0.00 0.00 0.01 61 1013.9
20260504141223 42 202 0.0 0.0 0.00 0.00 0.01 60 1013.9
20260504140724 42 240 2.0 2.0 0.00 0.00 0.01 59 1013.5
20260504140223 42 251 1.0 2.0 0.00 0.00 0.01 60 1013.9
20260504130738 41 285 2.0 3.0 0.00 0.00 0.01 63 1013.2
20260504130243 41 233 1.0 1.0 0.00 0.00 0.01 65 1013.2
20260504120222 41 241 0.0 1.0 0.00 0.00 0.01 67 1013.2
20260504110719 43 269 0.0 2.0 0.00 0.00 0.01 65 1013.2
20260504110219 43 44 3.0 3.0 0.00 0.00 0.01 65 1013.2
20260504100218 45 218 0.0 0.0 0.00 0.00 0.01 81 1012.9
20260504081715 47 314 1.0 2.0 0.00 0.00 0.01 74 1012.9
20260504081216 47 324 1.0 2.0 0.00 0.00 0.01 75 1012.9
20260504080714 47 246 1.0 1.0 0.00 0.00 0.01 76 1012.9
20260504080215 46 243 0.0 0.0 0.00 0.00 0.01 75 1013.2
20260504070213 47 288 4.0 5.0 0.00 0.00 0.00 73 1013.5
20260504060214 51 17 7.0 11.0 0.00 0.00 0.00 61 1013.2